Location: Ammerl�gen
(47.2167°N, 9.6000°E)
Time: 14:14:16
(UTC+00:00)

RS-15 - Pass Details

Date: 15 December 2021
Orbit: 1882 x 2162 km, 64.8° (Epoch: 28 January)

Event Time Altitude Azimuth Distance (km) Brightness Sun altitude
Exits shadow 04:54:27 22° 310° (NW) 3,699 9.0 -20.5°
Maximum altitude 05:00:52 34° 356° (N) 3,109 8.9 -19.5°
Drops below altitude 10° 05:11:47 10° 58° (ENE) 4,687 10.6 -17.7°
Sets 05:15:55 0° 68° (ENE) 5,693 11.3 -17.0°
